Year,Month,Day,Hour,Minute,Value (Times are PST for temperature in C)
2010,06,06,00,00,10.80
2010,06,06,00,01,10.80
2010,06,06,00,02,10.80
2010,06,06,00,03,10.70
2010,06,06,00,04,10.70
2010,06,06,00,05,10.70
2010,06,06,00,06,10.70
2010,06,06,00,07,10.70
2010,06,06,00,08,10.70
2010,06,06,00,09,10.70
2010,06,06,00,10,10.70
2010,06,06,00,11,10.70
2010,06,06,00,12,10.70
2010,06,06,00,13,10.70
2010,06,06,00,14,10.70
2010,06,06,00,15,10.70
2010,06,06,00,16,10.70
2010,06,06,00,17,10.70
2010,06,06,00,18,10.60
2010,06,06,00,19,10.60
2010,06,06,00,20,10.60
2010,06,06,00,21,10.60
2010,06,06,00,22,10.60
2010,06,06,00,23,10.60
2010,06,06,00,24,10.50
2010,06,06,00,25,10.50
2010,06,06,00,26,10.50
2010,06,06,00,27,10.50
2010,06,06,00,28,10.40
2010,06,06,00,29,10.40
2010,06,06,00,30,10.40
2010,06,06,00,31,10.40
2010,06,06,00,32,10.40
2010,06,06,00,33,10.40
2010,06,06,00,34,10.40
2010,06,06,00,35,10.40
2010,06,06,00,36,10.40
2010,06,06,00,37,10.40
2010,06,06,00,38,10.30
2010,06,06,00,39,10.30
2010,06,06,00,40,10.30
2010,06,06,00,41,10.30
2010,06,06,00,42,10.30
2010,06,06,00,43,10.30
2010,06,06,00,44,10.30
2010,06,06,00,45,10.30
2010,06,06,00,46,10.30
2010,06,06,00,47,10.30
2010,06,06,00,48,10.30
2010,06,06,00,49,10.20
2010,06,06,00,50,10.20
2010,06,06,00,51,10.20
2010,06,06,00,52,10.20
2010,06,06,00,53,10.20
2010,06,06,00,54,10.20
2010,06,06,00,55,10.20
2010,06,06,00,56,10.20
2010,06,06,00,57,10.20
2010,06,06,00,58,10.10
2010,06,06,00,59,10.10
2010,06,06,01,00,10.10
2010,06,06,01,01,10.10
2010,06,06,01,02,10.10
2010,06,06,01,03,10.10
2010,06,06,01,04,10.10
2010,06,06,01,05,10.10
2010,06,06,01,06,10.10
2010,06,06,01,07,10.10
2010,06,06,01,08,10.00
2010,06,06,01,09,10.00
2010,06,06,01,10,10.00
2010,06,06,01,11,10.00
2010,06,06,01,12,9.90
2010,06,06,01,13,9.90
2010,06,06,01,14,9.90
2010,06,06,01,15,9.90
2010,06,06,01,16,9.90
2010,06,06,01,17,9.90
2010,06,06,01,18,9.90
2010,06,06,01,19,9.80
2010,06,06,01,20,9.80
2010,06,06,01,21,9.80
2010,06,06,01,22,9.80
2010,06,06,01,23,9.70
2010,06,06,01,24,9.70
2010,06,06,01,25,9.70
2010,06,06,01,26,9.70
2010,06,06,01,27,9.70
2010,06,06,01,28,9.60
2010,06,06,01,29,9.60
2010,06,06,01,30,9.60
2010,06,06,01,31,9.60
2010,06,06,01,32,9.50
2010,06,06,01,33,9.50
2010,06,06,01,34,9.40
2010,06,06,01,35,9.40
2010,06,06,01,36,9.40
2010,06,06,01,37,9.40
2010,06,06,01,38,9.40
2010,06,06,01,39,9.40
2010,06,06,01,40,9.30
2010,06,06,01,41,9.30
2010,06,06,01,42,9.30
2010,06,06,01,43,9.30
2010,06,06,01,44,9.30
2010,06,06,01,45,9.30
2010,06,06,01,46,9.30
2010,06,06,01,47,9.20
2010,06,06,01,48,9.20
2010,06,06,01,49,9.20
2010,06,06,01,50,9.20
2010,06,06,01,51,9.20
2010,06,06,01,52,9.20
2010,06,06,01,53,9.20
2010,06,06,01,54,9.20
2010,06,06,01,55,9.20
2010,06,06,01,56,9.10
2010,06,06,01,57,9.10
2010,06,06,01,58,9.10
2010,06,06,01,59,9.10
2010,06,06,02,00,9.10
2010,06,06,02,01,9.10
2010,06,06,02,02,9.10
2010,06,06,02,03,9.10
2010,06,06,02,04,9.10
2010,06,06,02,05,9.10
2010,06,06,02,06,9.10
2010,06,06,02,07,9.10
2010,06,06,02,08,9.20
2010,06,06,02,09,9.10
2010,06,06,02,10,9.20
2010,06,06,02,11,9.20
2010,06,06,02,12,9.20
2010,06,06,02,13,9.20
2010,06,06,02,14,9.20
2010,06,06,02,15,9.20
2010,06,06,02,16,9.20
2010,06,06,02,17,9.20
2010,06,06,02,18,9.20
2010,06,06,02,19,9.20
2010,06,06,02,20,9.20
2010,06,06,02,21,9.20
2010,06,06,02,22,9.20
2010,06,06,02,23,9.20
2010,06,06,02,24,9.20
2010,06,06,02,25,9.20
2010,06,06,02,26,9.20
2010,06,06,02,27,9.20
2010,06,06,02,28,9.20
2010,06,06,02,29,9.20
2010,06,06,02,30,9.20
2010,06,06,02,31,9.20
2010,06,06,02,32,9.20
2010,06,06,02,33,9.20
2010,06,06,02,34,9.20
2010,06,06,02,35,9.20
2010,06,06,02,36,9.20
2010,06,06,02,37,9.20
2010,06,06,02,38,9.20
2010,06,06,02,39,9.20
2010,06,06,02,40,9.20
2010,06,06,02,41,9.20
2010,06,06,02,42,9.20
2010,06,06,02,43,9.20
2010,06,06,02,44,9.20
2010,06,06,02,45,9.20
2010,06,06,02,46,9.20
2010,06,06,02,47,9.20
2010,06,06,02,48,9.20
2010,06,06,02,49,9.20
2010,06,06,02,50,9.10
2010,06,06,02,51,9.10
2010,06,06,02,52,9.10
2010,06,06,02,53,9.10
2010,06,06,02,54,9.10
2010,06,06,02,55,9.10
2010,06,06,02,56,9.10
2010,06,06,02,57,9.00
2010,06,06,02,58,9.00
2010,06,06,02,59,9.00
2010,06,06,03,00,9.00
2010,06,06,03,01,9.00
2010,06,06,03,02,8.90
2010,06,06,03,03,8.90
2010,06,06,03,04,8.90
2010,06,06,03,05,8.90
2010,06,06,03,06,8.90
2010,06,06,03,07,8.90
2010,06,06,03,08,8.90
2010,06,06,03,09,8.90
2010,06,06,03,10,8.90
2010,06,06,03,11,8.80
2010,06,06,03,12,8.80
2010,06,06,03,13,8.80
2010,06,06,03,14,8.80
2010,06,06,03,15,8.80
2010,06,06,03,16,8.80
2010,06,06,03,17,8.80
2010,06,06,03,18,8.80
2010,06,06,03,19,8.80
2010,06,06,03,20,8.80
2010,06,06,03,21,8.80
2010,06,06,03,22,8.80
2010,06,06,03,23,8.70
2010,06,06,03,24,8.80
2010,06,06,03,25,8.70
2010,06,06,03,26,8.70
2010,06,06,03,27,8.70
2010,06,06,03,28,8.70
2010,06,06,03,29,8.70
2010,06,06,03,30,8.70
2010,06,06,03,31,8.70
2010,06,06,03,32,8.70
2010,06,06,03,33,8.70
2010,06,06,03,34,8.70
2010,06,06,03,35,8.70
2010,06,06,03,36,8.60
2010,06,06,03,37,8.60
2010,06,06,03,38,8.60
2010,06,06,03,39,8.60
2010,06,06,03,40,8.60
2010,06,06,03,41,8.60
2010,06,06,03,42,8.60
2010,06,06,03,43,8.50
2010,06,06,03,44,8.50
2010,06,06,03,45,8.50
2010,06,06,03,46,8.50
2010,06,06,03,47,8.50
2010,06,06,03,48,8.40
2010,06,06,03,49,8.40
2010,06,06,03,50,8.40
2010,06,06,03,51,8.40
2010,06,06,03,52,8.40
2010,06,06,03,53,8.40
2010,06,06,03,54,8.40
2010,06,06,03,55,8.40
2010,06,06,03,56,8.40
2010,06,06,03,57,8.40
2010,06,06,03,58,8.40
2010,06,06,03,59,8.40
2010,06,06,04,00,8.40
2010,06,06,04,01,8.40
2010,06,06,04,02,8.40
2010,06,06,04,03,8.40
2010,06,06,04,04,8.40
2010,06,06,04,05,8.30
2010,06,06,04,06,8.40
2010,06,06,04,07,8.30
2010,06,06,04,08,8.30
2010,06,06,04,09,8.30
2010,06,06,04,10,8.30
2010,06,06,04,11,8.30
2010,06,06,04,12,8.30
2010,06,06,04,13,8.30
2010,06,06,04,14,8.40
2010,06,06,04,15,8.40
2010,06,06,04,16,8.40
2010,06,06,04,17,8.40
2010,06,06,04,18,8.40
2010,06,06,04,19,8.40
2010,06,06,04,20,8.40
2010,06,06,04,21,8.40
2010,06,06,04,22,8.40
2010,06,06,04,23,8.40
2010,06,06,04,24,8.40
2010,06,06,04,25,8.40
2010,06,06,04,26,8.40
2010,06,06,04,27,8.40
2010,06,06,04,28,8.40
2010,06,06,04,29,8.40
2010,06,06,04,30,8.40
2010,06,06,04,31,8.50
2010,06,06,04,32,8.50
2010,06,06,04,33,8.50
2010,06,06,04,34,8.50
2010,06,06,04,35,8.50
2010,06,06,04,36,8.60
2010,06,06,04,37,8.60
2010,06,06,04,38,8.60
2010,06,06,04,39,8.60
2010,06,06,04,40,8.60
2010,06,06,04,41,8.60
2010,06,06,04,42,8.60
2010,06,06,04,43,8.60
2010,06,06,04,44,8.60
2010,06,06,04,45,8.60
2010,06,06,04,46,8.60
2010,06,06,04,47,8.60
2010,06,06,04,48,8.60
2010,06,06,04,49,8.50
2010,06,06,04,50,8.50
2010,06,06,04,51,8.50
2010,06,06,04,52,8.50
2010,06,06,04,53,8.50
2010,06,06,04,54,8.50
2010,06,06,04,55,8.50
2010,06,06,04,56,8.50
2010,06,06,04,57,8.50
2010,06,06,04,58,8.50
2010,06,06,04,59,8.50
2010,06,06,05,00,8.50
2010,06,06,05,01,8.50
2010,06,06,05,02,8.50
2010,06,06,05,03,8.50
2010,06,06,05,04,8.50
2010,06,06,05,05,8.50
2010,06,06,05,06,8.50
2010,06,06,05,07,8.50
2010,06,06,05,08,8.50
2010,06,06,05,09,8.50
2010,06,06,05,10,8.50
2010,06,06,05,11,8.50
2010,06,06,05,12,8.50
2010,06,06,05,13,8.50
2010,06,06,05,14,8.50
2010,06,06,05,15,8.60
2010,06,06,05,16,8.60
2010,06,06,05,17,8.60
2010,06,06,05,18,8.60
2010,06,06,05,19,8.60
2010,06,06,05,20,8.60
2010,06,06,05,21,8.60
2010,06,06,05,22,8.70
2010,06,06,05,23,8.70
2010,06,06,05,24,8.70
2010,06,06,05,25,8.70
2010,06,06,05,26,8.70
2010,06,06,05,27,8.70
2010,06,06,05,28,8.80
2010,06,06,05,29,8.80
2010,06,06,05,30,8.80
2010,06,06,05,31,8.80
2010,06,06,05,32,8.80
2010,06,06,05,33,8.80
2010,06,06,05,34,8.80
2010,06,06,05,35,8.80
2010,06,06,05,36,8.90
2010,06,06,05,37,8.90
2010,06,06,05,38,8.90
2010,06,06,05,39,8.90
2010,06,06,05,40,8.90
2010,06,06,05,41,8.90
2010,06,06,05,42,8.90
2010,06,06,05,43,8.90
2010,06,06,05,44,8.90
2010,06,06,05,45,8.90
2010,06,06,05,46,8.90
2010,06,06,05,47,8.90
2010,06,06,05,48,8.90
2010,06,06,05,49,8.90
2010,06,06,05,50,8.90
2010,06,06,05,51,8.90
2010,06,06,05,52,8.90
2010,06,06,05,53,8.90
2010,06,06,05,54,8.90
2010,06,06,05,55,8.90
2010,06,06,05,56,8.90
2010,06,06,05,57,8.90
2010,06,06,05,58,8.90
2010,06,06,05,59,8.90
2010,06,06,06,00,8.90
2010,06,06,06,01,8.90
2010,06,06,06,02,8.90
2010,06,06,06,03,9.00
2010,06,06,06,04,9.00
2010,06,06,06,05,9.00
2010,06,06,06,06,9.00
2010,06,06,06,07,9.10
2010,06,06,06,08,9.10
2010,06,06,06,09,9.10
2010,06,06,06,10,9.10
2010,06,06,06,11,9.10
2010,06,06,06,12,9.10
2010,06,06,06,13,9.10
2010,06,06,06,14,9.20
2010,06,06,06,15,9.20
2010,06,06,06,16,9.20
2010,06,06,06,17,9.20
2010,06,06,06,18,9.20
2010,06,06,06,19,9.20
2010,06,06,06,20,9.30
2010,06,06,06,21,9.30
2010,06,06,06,22,9.30
2010,06,06,06,23,9.30
2010,06,06,06,24,9.30
2010,06,06,06,25,9.30
2010,06,06,06,26,9.30
2010,06,06,06,27,9.30
2010,06,06,06,28,9.30
2010,06,06,06,29,9.30
2010,06,06,06,30,9.30
2010,06,06,06,31,9.30
2010,06,06,06,32,9.30
2010,06,06,06,33,9.30
2010,06,06,06,34,9.30
2010,06,06,06,35,9.30
2010,06,06,06,36,9.30
2010,06,06,06,37,9.40
2010,06,06,06,38,9.30
2010,06,06,06,39,9.40
2010,06,06,06,40,9.40
2010,06,06,06,41,9.40
2010,06,06,06,42,9.40
2010,06,06,06,43,9.40
2010,06,06,06,44,9.40
2010,06,06,06,45,9.40
2010,06,06,06,46,9.40
2010,06,06,06,47,9.40
2010,06,06,06,48,9.40
2010,06,06,06,49,9.50
2010,06,06,06,50,9.40
2010,06,06,06,51,9.50
2010,06,06,06,52,9.50
2010,06,06,06,53,9.50
2010,06,06,06,54,9.50
2010,06,06,06,55,9.50
2010,06,06,06,56,9.60
2010,06,06,06,57,9.60
2010,06,06,06,58,9.60
2010,06,06,06,59,9.60
2010,06,06,07,00,9.60
2010,06,06,07,01,9.60
2010,06,06,07,02,9.60
2010,06,06,07,03,9.60
2010,06,06,07,04,9.60
2010,06,06,07,05,9.60
2010,06,06,07,06,9.70
2010,06,06,07,07,9.70
2010,06,06,07,08,9.70
2010,06,06,07,09,9.70
2010,06,06,07,10,9.70
2010,06,06,07,11,9.70
2010,06,06,07,12,9.70
2010,06,06,07,13,9.70
2010,06,06,07,14,9.80
2010,06,06,07,15,9.80
2010,06,06,07,16,9.80
2010,06,06,07,17,9.80
2010,06,06,07,18,9.70
2010,06,06,07,19,9.70
2010,06,06,07,20,9.70
2010,06,06,07,21,9.70
2010,06,06,07,22,9.70
2010,06,06,07,23,9.70
2010,06,06,07,24,9.60
2010,06,06,07,25,9.60
2010,06,06,07,26,9.60
2010,06,06,07,27,9.60
2010,06,06,07,28,9.60
2010,06,06,07,29,9.60
2010,06,06,07,30,9.60
2010,06,06,07,31,9.60
2010,06,06,07,32,9.60
2010,06,06,07,33,9.60
2010,06,06,07,34,9.60
2010,06,06,07,35,9.60
2010,06,06,07,36,9.60
2010,06,06,07,37,9.70
2010,06,06,07,38,9.70
2010,06,06,07,39,9.70
2010,06,06,07,40,9.70
2010,06,06,07,41,9.80
2010,06,06,07,42,9.80
2010,06,06,07,43,9.80
2010,06,06,07,44,9.80
2010,06,06,07,45,9.90
2010,06,06,07,46,9.90
2010,06,06,07,47,10.00
2010,06,06,07,48,10.00
2010,06,06,07,49,10.10
2010,06,06,07,50,10.10
2010,06,06,07,51,10.10
2010,06,06,07,52,10.20
2010,06,06,07,53,10.20
2010,06,06,07,54,10.20
2010,06,06,07,55,10.30
2010,06,06,07,56,10.30
2010,06,06,07,57,10.30
2010,06,06,07,58,10.30
2010,06,06,07,59,10.40
2010,06,06,08,00,10.40
2010,06,06,08,01,10.50
2010,06,06,08,02,10.60
2010,06,06,08,03,10.60
2010,06,06,08,04,10.60
2010,06,06,08,05,10.70
2010,06,06,08,06,10.70
2010,06,06,08,07,10.70
2010,06,06,08,08,10.70
2010,06,06,08,09,10.80
2010,06,06,08,10,10.80
2010,06,06,08,11,10.80
2010,06,06,08,12,10.80
2010,06,06,08,13,10.80
2010,06,06,08,14,10.80
2010,06,06,08,15,10.90
2010,06,06,08,16,10.90
2010,06,06,08,17,10.90
2010,06,06,08,18,11.00
2010,06,06,08,19,11.00
2010,06,06,08,20,11.10
2010,06,06,08,21,11.10
2010,06,06,08,22,11.10
2010,06,06,08,23,11.10
2010,06,06,08,24,11.10
2010,06,06,08,25,11.20
2010,06,06,08,26,11.20
2010,06,06,08,27,11.20
2010,06,06,08,28,11.20
2010,06,06,08,29,11.20
2010,06,06,08,30,11.20
2010,06,06,08,31,11.20
2010,06,06,08,32,11.30
2010,06,06,08,33,11.30
2010,06,06,08,34,11.30
2010,06,06,08,35,11.30
2010,06,06,08,36,11.30
2010,06,06,08,37,11.30
2010,06,06,08,38,11.40
2010,06,06,08,39,11.40
2010,06,06,08,40,11.40
2010,06,06,08,41,11.50
2010,06,06,08,42,11.60
2010,06,06,08,43,11.60
2010,06,06,08,44,11.60
2010,06,06,08,45,11.60
2010,06,06,08,46,11.60
2010,06,06,08,47,11.70
2010,06,06,08,48,11.70
2010,06,06,08,49,11.70
2010,06,06,08,50,11.70
2010,06,06,08,51,11.80
2010,06,06,08,52,11.80
2010,06,06,08,53,11.80
2010,06,06,08,54,11.80
2010,06,06,08,55,11.80
2010,06,06,08,56,11.80
2010,06,06,08,57,11.80
2010,06,06,08,58,11.90
2010,06,06,08,59,11.90
2010,06,06,09,00,11.90
2010,06,06,09,01,11.90
2010,06,06,09,02,11.90
2010,06,06,09,03,11.90
2010,06,06,09,04,12.00
2010,06,06,09,05,12.00
2010,06,06,09,06,12.10
2010,06,06,09,07,12.10
2010,06,06,09,08,12.20
2010,06,06,09,09,12.20
2010,06,06,09,10,12.20
2010,06,06,09,11,12.30
2010,06,06,09,12,12.30
2010,06,06,09,13,12.30
2010,06,06,09,14,12.40
2010,06,06,09,15,12.40
2010,06,06,09,16,12.40
2010,06,06,09,17,12.40
2010,06,06,09,18,12.40
2010,06,06,09,19,12.50
2010,06,06,09,20,12.50
2010,06,06,09,21,12.50
2010,06,06,09,22,12.50
2010,06,06,09,23,12.60
2010,06,06,09,24,12.60
2010,06,06,09,25,12.70
2010,06,06,09,26,12.70
2010,06,06,09,27,12.70
2010,06,06,09,28,12.80
2010,06,06,09,29,12.80
2010,06,06,09,30,12.90
2010,06,06,09,31,12.90
2010,06,06,09,32,12.90
2010,06,06,09,33,12.90
2010,06,06,09,34,12.90
2010,06,06,09,35,13.00
2010,06,06,09,36,13.00
2010,06,06,09,37,13.00
2010,06,06,09,38,13.10
2010,06,06,09,39,13.10
2010,06,06,09,40,13.10
2010,06,06,09,41,13.10
2010,06,06,09,42,13.20
2010,06,06,09,43,13.20
2010,06,06,09,44,13.30
2010,06,06,09,45,13.30
2010,06,06,09,46,13.30
2010,06,06,09,47,13.30
2010,06,06,09,48,13.30
2010,06,06,09,49,13.30
2010,06,06,09,50,13.30
2010,06,06,09,51,13.30
2010,06,06,09,52,13.30
2010,06,06,09,53,13.30
2010,06,06,09,54,13.30
2010,06,06,09,55,13.20
2010,06,06,09,56,13.30
2010,06,06,09,57,13.20
2010,06,06,09,58,13.30
2010,06,06,09,59,13.20
2010,06,06,10,00,13.20
2010,06,06,10,01,13.20
2010,06,06,10,02,13.20
2010,06,06,10,03,13.30
2010,06,06,10,04,13.30
2010,06,06,10,05,13.30
2010,06,06,10,06,13.30
2010,06,06,10,07,13.30
2010,06,06,10,08,13.30
2010,06,06,10,09,13.40
2010,06,06,10,10,13.30
2010,06,06,10,11,13.40
2010,06,06,10,12,13.40
2010,06,06,10,13,13.40
2010,06,06,10,14,13.40
2010,06,06,10,15,13.40
2010,06,06,10,16,13.40
2010,06,06,10,17,13.50
2010,06,06,10,18,13.50
2010,06,06,10,21,13.60
2010,06,06,10,22,13.60
2010,06,06,10,23,13.60
2010,06,06,10,24,13.60
2010,06,06,10,25,13.60
2010,06,06,10,26,13.60
2010,06,06,10,27,13.60
2010,06,06,10,28,13.70
2010,06,06,10,29,13.70
2010,06,06,10,30,13.70
2010,06,06,10,31,13.70
2010,06,06,10,32,13.80
2010,06,06,10,34,13.80
2010,06,06,10,36,13.80
2010,06,06,10,37,13.80
2010,06,06,10,38,13.80
2010,06,06,10,39,13.90
2010,06,06,10,40,13.90
2010,06,06,10,41,13.90
2010,06,06,10,42,13.90
2010,06,06,10,43,13.90
2010,06,06,10,44,13.90
2010,06,06,10,45,13.90
2010,06,06,10,46,13.90
2010,06,06,10,47,13.90
2010,06,06,10,48,13.90
2010,06,06,10,49,13.80
2010,06,06,10,50,13.80
2010,06,06,10,51,13.80
2010,06,06,10,52,13.80
2010,06,06,10,53,13.80
2010,06,06,10,54,13.80
2010,06,06,10,55,13.80
2010,06,06,10,56,13.80
2010,06,06,10,57,13.90
2010,06,06,10,58,13.90
2010,06,06,16,55,15.40
2010,06,06,16,56,15.40
2010,06,06,16,57,15.40
2010,06,06,16,58,15.40
2010,06,06,16,59,15.50
2010,06,06,17,00,15.40
2010,06,06,17,01,15.40
2010,06,06,17,02,15.40
2010,06,06,17,03,15.50
2010,06,06,17,04,15.50
2010,06,06,17,05,15.50
2010,06,06,17,06,15.50
2010,06,06,17,07,15.60
2010,06,06,17,08,15.60
2010,06,06,17,09,15.60
2010,06,06,17,10,15.60
2010,06,06,17,11,15.70
2010,06,06,17,12,15.70
2010,06,06,17,13,15.70
2010,06,06,17,14,15.70
2010,06,06,17,15,15.70
2010,06,06,17,16,15.70
2010,06,06,17,17,15.70
2010,06,06,17,18,15.70
2010,06,06,17,19,15.70
2010,06,06,17,20,15.70
2010,06,06,17,21,15.70
2010,06,06,17,22,15.70
2010,06,06,17,23,15.70
2010,06,06,17,24,15.70
2010,06,06,17,25,15.70
2010,06,06,17,26,15.70
2010,06,06,17,27,15.70
2010,06,06,17,28,15.80
2010,06,06,17,29,15.80
2010,06,06,17,30,15.80
2010,06,06,17,31,15.80
2010,06,06,17,32,15.80
2010,06,06,17,33,15.90
2010,06,06,17,34,15.90
2010,06,06,17,35,15.90
2010,06,06,17,36,16.00
2010,06,06,17,37,16.10
2010,06,06,17,38,16.10
2010,06,06,17,39,16.20
2010,06,06,17,40,16.20
2010,06,06,17,41,16.30
2010,06,06,17,42,16.30
2010,06,06,17,43,16.40
2010,06,06,17,44,16.40
2010,06,06,17,45,16.50
2010,06,06,17,46,16.60
2010,06,06,17,47,16.60
2010,06,06,17,48,16.60
2010,06,06,17,49,16.60
2010,06,06,17,50,16.60
2010,06,06,17,51,16.60
2010,06,06,17,52,16.60
2010,06,06,17,53,16.60
2010,06,06,17,54,16.60
2010,06,06,17,55,16.50
2010,06,06,17,56,16.50
2010,06,06,17,57,16.60
2010,06,06,17,58,16.60
2010,06,06,17,59,16.60
2010,06,06,18,00,16.60
2010,06,06,18,01,16.60
2010,06,06,18,02,16.60
2010,06,06,18,03,16.60
2010,06,06,18,04,16.50
2010,06,06,18,05,16.50
2010,06,06,18,06,16.50
2010,06,06,18,07,16.40
2010,06,06,18,08,16.40
2010,06,06,18,09,16.30
2010,06,06,18,10,16.30
2010,06,06,18,11,16.30
2010,06,06,18,12,16.30
2010,06,06,18,13,16.30
2010,06,06,18,14,16.30
2010,06,06,18,15,16.30
2010,06,06,18,16,16.30
2010,06,06,18,17,16.30
2010,06,06,18,18,16.30
2010,06,06,18,19,16.30
2010,06,06,18,20,16.30
2010,06,06,18,21,16.30
2010,06,06,18,22,16.30
2010,06,06,18,23,16.30
2010,06,06,18,24,16.30
2010,06,06,18,25,16.30
2010,06,06,18,26,16.30
2010,06,06,18,27,16.30
2010,06,06,18,28,16.30
2010,06,06,18,29,16.30
2010,06,06,18,30,16.30
2010,06,06,18,31,16.30
2010,06,06,18,32,16.30
2010,06,06,18,33,16.30
2010,06,06,18,34,16.30
2010,06,06,18,35,16.30
2010,06,06,18,36,16.30
2010,06,06,18,37,16.30
2010,06,06,18,38,16.30
2010,06,06,18,39,16.30
2010,06,06,18,40,16.30
2010,06,06,18,41,16.30
2010,06,06,18,42,16.30
2010,06,06,18,43,16.30
2010,06,06,18,44,16.30
2010,06,06,18,45,16.20
2010,06,06,18,46,16.20
2010,06,06,18,47,16.10
2010,06,06,18,48,16.10
2010,06,06,18,49,16.10
2010,06,06,18,50,16.10
2010,06,06,18,51,16.10
2010,06,06,18,52,16.10
2010,06,06,18,53,16.10
2010,06,06,18,54,16.00
2010,06,06,18,55,16.00
2010,06,06,18,56,16.00
2010,06,06,18,57,16.00
2010,06,06,18,58,15.90
2010,06,06,18,59,16.00
2010,06,06,19,00,16.00
2010,06,06,19,01,15.90
2010,06,06,19,02,15.90
2010,06,06,19,03,15.90
2010,06,06,19,04,15.90
2010,06,06,19,05,15.90
2010,06,06,19,06,15.90
2010,06,06,19,07,15.90
2010,06,06,19,08,15.90
2010,06,06,19,09,15.90
2010,06,06,19,10,15.90
2010,06,06,19,11,15.90
2010,06,06,19,12,15.90
2010,06,06,19,13,16.00
2010,06,06,19,14,16.00
2010,06,06,19,15,16.00
2010,06,06,19,16,16.00
2010,06,06,19,17,16.00
2010,06,06,19,18,16.00
2010,06,06,19,19,16.00
2010,06,06,19,20,16.10
2010,06,06,19,21,16.10
2010,06,06,19,22,16.10
2010,06,06,19,23,16.10
2010,06,06,19,24,16.10
2010,06,06,19,25,16.10
2010,06,06,19,26,16.10
2010,06,06,19,27,16.10
2010,06,06,19,28,16.10
2010,06,06,19,29,16.10
2010,06,06,19,30,16.10
2010,06,06,19,31,16.10
2010,06,06,19,32,16.00
2010,06,06,19,33,16.00
2010,06,06,19,34,15.90
2010,06,06,19,35,15.90
2010,06,06,19,36,15.90
2010,06,06,19,37,15.90
2010,06,06,19,38,15.90
2010,06,06,19,39,15.80
2010,06,06,19,40,15.80
2010,06,06,19,41,15.80
2010,06,06,19,42,15.80
2010,06,06,19,43,15.80
2010,06,06,19,44,15.80
2010,06,06,19,45,15.80
2010,06,06,19,46,15.80
2010,06,06,19,47,15.80
2010,06,06,19,48,15.80
2010,06,06,19,49,15.80
2010,06,06,19,50,15.80
2010,06,06,19,51,15.80
2010,06,06,19,52,15.80
2010,06,06,19,53,15.80
2010,06,06,19,54,15.80
2010,06,06,19,55,15.80
2010,06,06,19,56,15.80
2010,06,06,19,57,15.80
2010,06,06,19,58,15.80
2010,06,06,19,59,15.80
2010,06,06,20,00,15.80
2010,06,06,20,01,15.70
2010,06,06,20,02,15.70
2010,06,06,20,03,15.70
2010,06,06,20,04,15.70
2010,06,06,20,05,15.70
2010,06,06,20,06,15.70
2010,06,06,20,07,15.70
2010,06,06,20,08,15.70
2010,06,06,20,09,15.70
2010,06,06,20,10,15.60
2010,06,06,20,11,15.60
2010,06,06,20,12,15.60
2010,06,06,20,13,15.60
2010,06,06,20,14,15.60
2010,06,06,20,15,15.60
2010,06,06,20,16,15.60
2010,06,06,20,17,15.60
2010,06,06,20,18,15.60
2010,06,06,20,19,15.60
2010,06,06,20,20,15.50
2010,06,06,20,21,15.50
2010,06,06,20,22,15.40
2010,06,06,20,23,15.40
2010,06,06,20,24,15.40
2010,06,06,20,25,15.40
2010,06,06,20,26,15.40
2010,06,06,20,27,15.30
2010,06,06,20,28,15.30
2010,06,06,20,29,15.30
2010,06,06,20,30,15.20
2010,06,06,20,31,15.10
2010,06,06,20,32,15.00
2010,06,06,20,33,15.00
2010,06,06,20,34,15.00
2010,06,06,20,35,14.90
2010,06,06,20,36,14.80
2010,06,06,20,37,14.80
2010,06,06,20,38,14.70
2010,06,06,20,39,14.70
2010,06,06,20,40,14.60
2010,06,06,20,41,14.60
2010,06,06,20,42,14.50
2010,06,06,20,43,14.40
2010,06,06,20,44,14.40
2010,06,06,20,45,14.30
2010,06,06,20,46,14.30
2010,06,06,20,47,14.30
2010,06,06,20,48,14.30
2010,06,06,20,49,14.20
2010,06,06,20,50,14.20
2010,06,06,20,51,14.20
2010,06,06,20,52,14.10
2010,06,06,20,53,14.10
2010,06,06,20,54,14.00
2010,06,06,20,55,13.90
2010,06,06,20,56,13.90
2010,06,06,20,57,13.90
2010,06,06,20,58,13.90
2010,06,06,20,59,13.90
2010,06,06,21,00,13.80
2010,06,06,21,01,13.80
2010,06,06,21,02,13.80
2010,06,06,21,03,13.80
2010,06,06,21,04,13.80
2010,06,06,21,05,13.80
2010,06,06,21,06,13.80
2010,06,06,21,07,13.80
2010,06,06,21,08,13.80
2010,06,06,21,09,13.80
2010,06,06,21,10,13.80
2010,06,06,21,11,13.70
2010,06,06,21,12,13.70
2010,06,06,21,13,13.70
2010,06,06,21,14,13.70
2010,06,06,21,15,13.70
2010,06,06,21,16,13.70
2010,06,06,21,17,13.70
2010,06,06,21,18,13.70
2010,06,06,21,19,13.80
2010,06,06,21,20,13.70
2010,06,06,21,21,13.70
2010,06,06,21,22,13.70
2010,06,06,21,23,13.70
2010,06,06,21,24,13.70
2010,06,06,21,25,13.70
2010,06,06,21,26,13.70
2010,06,06,21,27,13.70
2010,06,06,21,28,13.70
2010,06,06,21,29,13.70
2010,06,06,21,30,13.70
2010,06,06,21,31,13.70
2010,06,06,21,32,13.70
2010,06,06,21,33,13.70
2010,06,06,21,34,13.70
2010,06,06,21,35,13.70
2010,06,06,21,36,13.70
2010,06,06,21,37,13.70
2010,06,06,21,38,13.70
2010,06,06,21,39,13.60
2010,06,06,21,40,13.60
2010,06,06,21,41,13.60
2010,06,06,21,42,13.60
2010,06,06,21,43,13.60
2010,06,06,21,44,13.60
2010,06,06,21,45,13.60
2010,06,06,21,46,13.60
2010,06,06,21,47,13.60
2010,06,06,21,48,13.60
2010,06,06,21,49,13.60
2010,06,06,21,50,13.60
2010,06,06,21,51,13.60
2010,06,06,21,52,13.60
2010,06,06,21,53,13.60
2010,06,06,21,54,13.60
2010,06,06,21,55,13.50
2010,06,06,21,56,13.60
2010,06,06,21,57,13.60
2010,06,06,21,58,13.50
2010,06,06,21,59,13.50
2010,06,06,22,00,13.50
2010,06,06,22,01,13.50
2010,06,06,22,02,13.60
2010,06,06,22,03,13.50
2010,06,06,22,04,13.60
2010,06,06,22,05,13.60
2010,06,06,22,06,13.50
2010,06,06,22,07,13.60
2010,06,06,22,08,13.50
2010,06,06,22,09,13.50
2010,06,06,22,10,13.50
2010,06,06,22,11,13.60
2010,06,06,22,12,13.60
2010,06,06,22,13,13.50
2010,06,06,22,14,13.60
2010,06,06,22,15,13.60
2010,06,06,22,16,13.50
2010,06,06,22,17,13.60
2010,06,06,22,18,13.50
2010,06,06,22,19,13.60
2010,06,06,22,20,13.60
2010,06,06,22,21,13.60
2010,06,06,22,22,13.60
2010,06,06,22,23,13.60
2010,06,06,22,24,13.60
2010,06,06,22,25,13.60
2010,06,06,22,26,13.60
2010,06,06,22,27,13.60
2010,06,06,22,28,13.60
2010,06,06,22,29,13.60
2010,06,06,22,30,13.60
2010,06,06,22,31,13.60
2010,06,06,22,32,13.60
2010,06,06,22,33,13.60
2010,06,06,22,34,13.60
2010,06,06,22,35,13.60
2010,06,06,22,36,13.60
2010,06,06,22,37,13.60
2010,06,06,22,38,13.60
2010,06,06,22,39,13.60
2010,06,06,22,40,13.60
2010,06,06,22,41,13.60
2010,06,06,22,42,13.60
2010,06,06,22,43,13.50
2010,06,06,22,44,13.50
2010,06,06,22,45,13.50
2010,06,06,22,46,13.40
2010,06,06,22,47,13.40
2010,06,06,22,48,13.40
2010,06,06,22,49,13.40
2010,06,06,22,50,13.40
2010,06,06,22,51,13.40
2010,06,06,22,52,13.40
2010,06,06,22,53,13.40
2010,06,06,22,54,13.40
2010,06,06,22,55,13.30
2010,06,06,22,56,13.30
2010,06,06,22,57,13.30
2010,06,06,22,58,13.30
2010,06,06,22,59,13.30
2010,06,06,23,00,13.30
2010,06,06,23,01,13.30
2010,06,06,23,02,13.30
2010,06,06,23,03,13.30
2010,06,06,23,04,13.30
2010,06,06,23,05,13.20
2010,06,06,23,06,13.20
2010,06,06,23,07,13.20
2010,06,06,23,08,13.20
2010,06,06,23,09,13.20
2010,06,06,23,10,13.20
2010,06,06,23,11,13.20
2010,06,06,23,12,13.20
2010,06,06,23,13,13.20
2010,06,06,23,14,13.20
2010,06,06,23,15,13.20
2010,06,06,23,16,13.20
2010,06,06,23,17,13.20
2010,06,06,23,18,13.20
2010,06,06,23,19,13.20
2010,06,06,23,20,13.20
2010,06,06,23,21,13.20
2010,06,06,23,22,13.20
2010,06,06,23,23,13.20
2010,06,06,23,24,13.20
2010,06,06,23,25,13.20
2010,06,06,23,26,13.20
2010,06,06,23,27,13.20
2010,06,06,23,28,13.20
2010,06,06,23,29,13.20
2010,06,06,23,30,13.20
2010,06,06,23,31,13.20
2010,06,06,23,32,13.20
2010,06,06,23,33,13.20
2010,06,06,23,34,13.20
2010,06,06,23,35,13.20
2010,06,06,23,36,13.20